Watsonville, CA

5:26 PM PDT on August 31, 2016 (GMT -0700)
Watsonville Municipal

Weather History for KWVI - December, 2011

Change the Weather History Date:

Friday, December 2, 2011

  Actual Average Record
Temperature  
Mean Temperature 53 °F 51 °F  
Max Temperature 66 °F 61 °F 70 °F (2006)
Min Temperature 39 °F 41 °F 30 °F (2004)
Degree Days  
Heating Degree Days 12    
Month to date heating degree days 15  
Since 1 July heating degree days 667  
Cooling Degree Days 0    
Month to date cooling degree days 0  
Year to date cooling degree days 111  
Growing Degree Days 2 (Base 50)    
Moisture  
Dew Point 29 °F    
Average Humidity 50    
Maximum Humidity 85    
Minimum Humidity 15    
Precipitation  
Precipitation 0.00 in - 1.54 in (2001)
Month to date precipitation 0.00  
Year to date precipitation 22.42  
Since 1 July precipitation 4.24  
Sea Level Pressure  
Sea Level Pressure 30.00 in    
Wind  
Wind Speed 4 mph (WSW)    
Max Wind Speed 13 mph    
Max Gust Speed 21 mph    
Visibility 10 miles    
Events      
T = Trace of Precipitation, MM = Missing Value Source: NWS Daily Summary

Daily Weather History Graph

Daily Weather History Graph

Search for Another Location

Airport or City:

Trip Planner

Search our weather history database for the weather conditions in past years. The results will help you decide how hot, cold, wet, or windy it might be!

Date:

Astronomy

Dec. 02, 2011 Rise Set
Actual Time 7:02 AM PST 4:50 PM PST
Civil Twilight 6:33 AM PST 5:19 PM PST
Nautical Twilight 6:01 AM PST 5:51 PM PST
Astronomical Twilight 5:30 AM PST 6:22 PM PST
Moon 12:23 PM PST (12/2) No Moon Set
Length of Visible Light 10h 45m
Length of Day
9h 48m
First Quarter, 54% of the Moon is Illuminated
Dec 2
First Quarter
Dec 10
Full
Dec 17
Last Quarter
Dec 24
New
Dec 31
First Quarter

Hourly Weather History & Observations

Time (PST) Temp. Windchill Dew Point Humidity Pressure Visibility Wind Dir Wind Speed Gust Speed Precip Events Conditions
12:53 AM 60.1 °F - 12.0 °F 15% 29.99 in 10.0 mi Calm Calm - N/A   Clear
1:53 AM 57.0 °F - 15.1 °F 19% 29.99 in 10.0 mi WNW 4.6 mph - N/A   Clear
3:53 AM 46.0 °F - 21.9 °F 39% 30.00 in 10.0 mi Calm Calm - N/A   Clear
4:53 AM 46.0 °F 44.8 °F 23.0 °F 40% 30.00 in 10.0 mi NW 3.5 mph - N/A   Clear
5:53 AM 42.1 °F - 24.1 °F 49% 30.02 in 10.0 mi Calm Calm - N/A   Clear
6:53 AM 44.1 °F 42.5 °F 24.1 °F 45% 30.04 in 10.0 mi WNW 3.5 mph - N/A   Clear
7:53 AM 45.0 °F - 27.0 °F 49% 30.03 in 10.0 mi Calm Calm - N/A   Clear
8:53 AM 48.0 °F - 28.0 °F 46% 30.06 in 10.0 mi NW 4.6 mph - N/A   Clear
9:53 AM 55.9 °F - 24.1 °F 29% 30.06 in 10.0 mi Calm Calm - N/A   Clear
10:53 AM 61.0 °F - 24.1 °F 24% 30.04 in 10.0 mi Calm Calm - N/A   Clear
12:53 PM 64.9 °F - 21.0 °F 19% 29.99 in 10.0 mi South 8.1 mph - N/A   Clear
1:53 PM 64.0 °F - 25.0 °F 23% 29.97 in 10.0 mi SSW 5.8 mph - N/A   Clear
2:53 PM 61.0 °F - 33.1 °F 35% 29.96 in 10.0 mi SSW 5.8 mph - N/A   Clear
3:53 PM 60.1 °F - 41.0 °F 49% 29.97 in 10.0 mi South 5.8 mph - N/A   Clear
4:53 PM 54.0 °F - 45.0 °F 72% 29.96 in 10.0 mi SE 5.8 mph - N/A   Clear
5:53 PM 52.0 °F - 46.0 °F 80% 29.97 in 10.0 mi Calm Calm - N/A   Clear
6:53 PM 48.0 °F - 39.0 °F 71% 29.98 in 10.0 mi Calm Calm - N/A   Clear
7:53 PM 46.9 °F - 37.0 °F 68% 29.99 in 10.0 mi WNW 4.6 mph - N/A   Clear
8:53 PM 45.0 °F 42.6 °F 36.0 °F 71% 29.99 in 10.0 mi Variable 4.6 mph - N/A   Clear
9:53 PM 44.1 °F 40.1 °F 36.0 °F 73% 29.98 in 10.0 mi WNW 6.9 mph - N/A   Clear
10:53 PM 39.9 °F 37.8 °F 36.0 °F 86% 29.98 in 10.0 mi SSW 3.5 mph - N/A   Clear
11:53 PM 53.1 °F - 28.0 °F 38% 29.99 in 10.0 mi NNW 8.1 mph - N/A   Clear